Manteo, NC

1:04 AM EST on December 18, 2017 (GMT -0500)
Dare County Regional

Weather History for KMQI - February, 2013

Change the Weather History Date:

Friday, February 15, 2013

  Actual Average Record
Temperature  
Mean Temperature 44 °F -  
Max Temperature 56 °F 50 °F 70 °F (1967)
Min Temperature 33 °F 37 °F 19 °F (2015)
Degree Days  
Heating Degree Days 21    
Moisture  
Dew Point 37 °F    
Average Humidity 80    
Maximum Humidity 99    
Minimum Humidity 41    
Precipitation  
Precipitation 0.00 in - - ()
Sea Level Pressure  
Sea Level Pressure 30.04 in    
Wind  
Wind Speed 1 mph (ENE)    
Max Wind Speed 7 mph    
Max Gust Speed -    
Visibility 8 miles    
Events Fog    
Averages and records for this station are not official NWS values.
T = Trace of Precipitation, MM = Missing Value Source: NWS Daily Summary

Daily Weather History Graph

Daily Weather History Graph

Search for Another Location

Airport or City:

Trip Planner

Search our weather history database for the weather conditions in past years. The results will help you decide how hot, cold, wet, or windy it might be!

Date:

Astronomy

Feb. 15, 2013 Rise Set
Actual Time 6:49 AM EST 5:44 PM EST
Civil Twilight 6:23 AM EST 6:10 PM EST
Nautical Twilight 5:53 AM EST 6:40 PM EST
Astronomical Twilight 5:23 AM EST 7:10 PM EST
Moon 9:37 AM EST (2/15) 11:29 PM EST (2/15)
Length of Visible Light 11h 47m
Length of Day
10h 54m
Waxing Crescent, 30% of the Moon is Illuminated
Feb 15
Waxing Crescent
Feb 17
First Quarter
Feb 25
Full
Mar 4
Last Quarter
Mar 11
New

Hourly Weather History & Observations

Time (EST) Temp. Dew Point Humidity Pressure Visibility Wind Dir Wind Speed Gust Speed Precip Events Conditions
12:15 AM 36.5 °F 35.6 °F 97% 30.07 in 7.0 mi Calm Calm - N/A   Clear
12:35 AM 35.8 °F 35.1 °F 97% 30.06 in 5.0 mi Calm Calm - N/A   Clear
12:55 AM 36.0 °F 35.2 °F 97% 30.07 in 5.0 mi Calm Calm - N/A   Clear
1:15 AM 36.1 °F 35.2 °F 97% 30.07 in 5.0 mi Calm Calm - N/A   Clear
1:55 AM 35.2 °F 34.5 °F 97% 30.08 in 2.0 mi Calm Calm - N/A   Clear
2:15 AM 35.1 °F 34.5 °F 98% 30.07 in 1.2 mi Calm Calm - N/A   Mist
2:35 AM 34.7 °F 34.2 °F 98% 30.08 in 3.0 mi Calm Calm - N/A   Clear
2:55 AM 34.5 °F 34.0 °F 98% 30.07 in 7.0 mi Calm Calm - N/A   Clear
3:15 AM 34.9 °F 34.3 °F 98% 30.07 in 2.0 mi Calm Calm - N/A   Clear
3:35 AM 33.6 °F 33.1 °F 98% 30.05 in 2.0 mi Calm Calm - N/A   Clear
3:55 AM 37.0 °F 36.7 °F 99% 30.06 in 10.0 mi Calm Calm - N/A   Clear
4:15 AM 35.6 °F 35.1 °F 98% 30.07 in 5.0 mi Calm Calm - N/A   Clear
4:35 AM 37.4 °F 37.0 °F 99% 30.07 in 10.0 mi Calm Calm - N/A   Clear
4:55 AM 37.2 °F 36.3 °F 97% 30.08 in 10.0 mi Calm Calm - N/A   Clear
5:15 AM 37.8 °F 37.0 °F 97% 30.07 in 7.0 mi Calm Calm - N/A   Clear
5:35 AM 34.9 °F 33.3 °F 94% 30.07 in 5.0 mi Calm Calm - N/A   Clear
5:55 AM 34.2 °F 33.6 °F 98% 30.07 in 2.5 mi Calm Calm - N/A   Clear
6:15 AM 35.6 °F 35.1 °F 98% 30.08 in 7.0 mi Calm Calm - N/A   Clear
6:35 AM 35.6 °F 34.9 °F 97% 30.07 in 0.8 mi Calm Calm - N/A   Mist
6:55 AM 34.5 °F 34.0 °F 98% 30.08 in 7.0 mi Calm Calm - N/A   Clear
7:15 AM 34.5 °F 34.0 °F 98% 30.08 in 4.0 mi Calm Calm - N/A   Clear
7:35 AM 35.6 °F 35.2 °F 99% 30.09 in 1.2 mi Calm Calm - N/A   Mist
7:55 AM 38.3 °F 37.9 °F 99% 30.09 in 5.0 mi Calm Calm - N/A   Clear
8:15 AM 43.7 °F 42.8 °F 97% 30.10 in 7.0 mi Calm Calm - N/A   Clear
8:35 AM 47.5 °F 43.0 °F 84% 30.09 in 10.0 mi Calm Calm - N/A   Clear
8:55 AM 48.4 °F 42.1 °F 79% 30.09 in 10.0 mi North 4.6 mph - N/A   Clear
9:15 AM 49.5 °F 41.9 °F 75% 30.09 in 10.0 mi Calm Calm - N/A   Clear
9:35 AM 50.5 °F 41.4 °F 71% 30.10 in 10.0 mi Calm Calm - N/A   Clear
9:55 AM 51.3 °F 39.9 °F 65% 30.10 in 10.0 mi North 3.5 mph - N/A   Clear
10:15 AM 52.0 °F 38.7 °F 60% 30.10 in 10.0 mi Calm Calm - N/A   Clear
10:35 AM 52.7 °F 37.0 °F 55% 30.09 in 10.0 mi NNE 5.8 mph - N/A   Clear
10:55 AM 53.6 °F 38.5 °F 57% 30.09 in 10.0 mi NNW 3.5 mph - N/A   Clear
11:15 AM 54.3 °F 39.0 °F 56% 30.08 in 10.0 mi Calm Calm - N/A   Clear
11:35 AM 54.7 °F 39.0 °F 56% 30.07 in 10.0 mi NNE 4.6 mph - N/A   Clear
11:55 AM 54.5 °F 38.1 °F 54% 30.07 in 10.0 mi NE 3.5 mph - N/A   Clear
12:15 PM 55.4 °F 36.9 °F 50% 30.06 in 10.0 mi NE 3.5 mph - N/A   Clear
12:35 PM 55.6 °F 35.6 °F 47% 30.05 in 10.0 mi ENE 3.5 mph - N/A   Clear
1:15 PM 55.8 °F 33.4 °F 43% 30.04 in 10.0 mi NE 5.8 mph - N/A   Clear
1:55 PM 55.9 °F 33.1 °F 42% 30.03 in 10.0 mi East 4.6 mph - N/A   Clear
2:15 PM 55.2 °F 33.1 °F 43% 30.03 in 10.0 mi East 5.8 mph - N/A   Clear
2:35 PM 55.0 °F 31.5 °F 41% 30.02 in 10.0 mi East 6.9 mph - N/A   Clear
2:55 PM 55.2 °F 32.2 °F 42% 30.02 in 10.0 mi East 6.9 mph - N/A   Clear
3:15 PM 54.9 °F 33.3 °F 44% 30.01 in 10.0 mi ESE 6.9 mph - N/A   Clear
3:35 PM 54.3 °F 33.8 °F 46% 30.01 in 10.0 mi ENE 6.9 mph - N/A   Clear
3:55 PM 53.8 °F 34.3 °F 48% 30.00 in 10.0 mi East 6.9 mph - N/A   Clear
4:15 PM 52.9 °F 34.9 °F 50% 30.00 in 10.0 mi ENE 5.8 mph - N/A   Clear
4:35 PM 52.2 °F 35.1 °F 52% 30.00 in 10.0 mi East 6.9 mph - N/A   Clear
4:55 PM 51.6 °F 35.8 °F 55% 29.99 in 10.0 mi East 4.6 mph - N/A   Clear
5:15 PM 50.2 °F 37.0 °F 61% 29.99 in 10.0 mi East 5.8 mph - N/A   Clear
5:35 PM 48.4 °F 37.6 °F 66% 29.98 in 10.0 mi East 3.5 mph - N/A   Clear
5:55 PM 46.8 °F 38.3 °F 72% 29.98 in 10.0 mi East 3.5 mph - N/A   Clear
6:15 PM 45.9 °F 38.5 °F 75% 29.98 in 10.0 mi Calm Calm - N/A   Clear
6:35 PM 45.9 °F 39.2 °F 78% 29.98 in 10.0 mi Calm Calm - N/A   Clear
6:55 PM 42.8 °F 38.3 °F 84% 29.98 in 10.0 mi Calm Calm - N/A   Clear
7:15 PM 41.9 °F 37.2 °F 83% 29.98 in 10.0 mi Calm Calm - N/A   Clear
7:35 PM 41.4 °F 38.7 °F 90% 29.98 in 10.0 mi Calm Calm - N/A   Clear
7:55 PM 40.5 °F 37.9 °F 91% 29.98 in 10.0 mi Calm Calm - N/A   Clear
8:15 PM 40.5 °F 38.3 °F 92% 29.98 in 10.0 mi Calm Calm - N/A   Clear
8:35 PM 40.6 °F 38.1 °F 91% 29.98 in 10.0 mi Calm Calm - N/A   Clear
8:55 PM 40.1 °F 38.1 °F 93% 29.98 in 10.0 mi Calm Calm - N/A   Clear
9:15 PM 39.2 °F 37.6 °F 94% 29.99 in 7.0 mi Calm Calm - N/A   Clear
9:35 PM 40.1 °F 38.1 °F 93% 29.99 in 10.0 mi Calm Calm - N/A   Clear
9:55 PM 39.9 °F 38.5 °F 95% 29.99 in 10.0 mi Calm Calm - N/A   Clear
10:15 PM 39.4 °F 38.3 °F 96% 29.98 in 7.0 mi Calm Calm - N/A   Clear
10:35 PM 39.2 °F 38.3 °F 97% 29.98 in 7.0 mi Calm Calm - N/A   Clear
10:55 PM 39.2 °F 37.9 °F 95% 29.97 in 3.0 mi Calm Calm - N/A   Clear
11:15 PM 37.6 °F 36.7 °F 97% 29.97 in 0.5 mi Calm Calm - N/A Fog Fog
11:35 PM 37.8 °F 36.7 °F 96% 29.96 in 7.0 mi Calm Calm - N/A   Scattered Clouds
11:55 PM 37.6 °F 36.9 °F 97% 29.96 in 5.0 mi Calm Calm - N/A   Clear